Location: Cucq
(50.4773°N, 1.6202°E)
Time: 21:55:26
(UTC+00:00)

Meteor 1-29 - Pass Details

Date: 07 August 2020
Orbit: 438 x 460 km, 97.7° (Epoch: 22 September)

Event Time Altitude Azimuth Distance (km) Brightness Sun altitude
Rises 00:47:04 0° 16° (NNE) 2,502 8.2 -22.4°
Reaches altitude 10° 00:49:09 10° 20° (NNE) 1,622 6.8 -22.3°
Enters shadow 00:52:17 57° 73° (ENE) 550 3.4 -22.2°
